Regional Weather Roundup
Issued by NWS

Home | Current Version | Previous Version | Graphics & Text | Print | Product List | Glossary On
Versions: 1 2 3 4 5 6 7 8 9 10 11 12 13 14 15 16 17 18 19 20 21 22 23 24 25 26 27 28 29 30 31 32 33 34 35 36 37 38 39 40 41 42 43 44 45 46 47 48 49 50
000
ASUS45 KABQ 242110
RWRNM
WEATHER ROUNDUP FOR NEW MEXICO
NATIONAL WEATHER SERVICE ALBUQUERQUE NM
300 PM MDT FRI OCT 24 2014

NOTE: "FAIR" MEANS FEW OR NO CLOUDS BELOW 12,000 FEET AGL WITH NO
       SIGNIFICANT WEATHER OR OBSTRUCTIONS TO VISION.

      THIS PRODUCT IS RELEASED AS TWO VERSIONS.  ONE VERSION NEAR
      THE TOP OF THE HOUR CONTAINING PRELIMINARY DATA FROM ALBUQUERQUE
      AND OTHER STATIONS.  A FINAL VERSION WITH ADDITIONAL DATA IS
      ISSUED ABOUT 10 MINUTES AFTER THE HOUR.

NMZ501-503-504-510>518-242200-
NORTHWEST PLATEAU/NORTHCENTRAL MOUNTAINS

CITY           SKY/WX    TMP DP  RH WIND       PRES   REMARKS
FARMINGTON     SUNNY     75  30  19 W7        30.27F
LOS ALAMOS     SUNNY     69  31  24 N3        30.35F
SANTA FE       SUNNY     77  23  13 VRB6      30.28F
TAOS           SUNNY     72  25  17 CALM      30.34F
ANGEL FIRE     FAIR      70  13  11 W14       30.39S

$$
NMZ402-403-502-505>509-242200-
WESTCENTRAL MOUNTAINS/SOUTHWEST MOUNTAINS

CITY           SKY/WX    TMP DP  RH WIND       PRES   REMARKS
GALLUP         SUNNY     74  31  20 W6        30.32F
GRANTS         SUNNY     77  25  14 N8        30.33F
SILVER CITY    SUNNY     77  37  24 SE5       30.27F

$$
NMZ407-409-411-412-242200-
SOUTHERN DESERTS

CITY           SKY/WX    TMP DP  RH WIND       PRES   REMARKS
LORDSBURG      FAIR      81  41  24 SW5       30.19F
DEMING         SUNNY     80  43  26 CALM      30.19F
LAS CRUCES     SUNNY     80  44  28 CALM      30.22F
HOLLOMAN AFB   SUNNY     80  48  33 VRB3      30.17F
T OR C         SUNNY     78  42  27 S6        30.21F

$$
NMZ519>523-242200-
CENTRAL VALLEYS/CENTRAL HIGHLANDS

CITY           SKY/WX    TMP DP  RH WIND       PRES   REMARKS
ALBUQUERQUE    SUNNY     77  33  20 W7        30.26F
DOUBLE EAGLE   SUNNY     75  32  20 VRB7      30.28F
MORIARTY ARPT  FAIR      78  27  15 W13       30.28F
CLINES CORNERS SUNNY     75  21  13 W21G26    30.30F
BELEN          FAIR      78  33  19 CALM      30.25F
SOCORRO        FAIR      77  38  24 SE3       30.23F

$$
NMZ524>526-539-540-242200-
SOUTHCENTRAL MOUNTAINS

CITY           SKY/WX    TMP DP  RH WIND       PRES   REMARKS
RUIDOSO        SUNNY     72  39  30 NW7       30.35F

$$
NMZ527>531-242200-
NORTHEAST HIGHLANDS/NORTHEAST PLAINS

CITY           SKY/WX    TMP DP  RH WIND       PRES   REMARKS
LAS VEGAS      SUNNY     78  24  13 S8        30.26F
RATON          SUNNY     78  25  14 VRB5      30.21F
CLAYTON        SUNNY     83  29  14 SW9       30.15F

$$
NMZ532>537-242200-
EASTCENTRAL PLAINS

CITY           SKY/WX    TMP DP  RH WIND       PRES   REMARKS
TUCUMCARI      SUNNY     88  35  15 S9        30.09F
CANNON AFB     SUNNY     83  38  20 SW13G21   30.15S
CLOVIS AIRPORT SUNNY     82  37  20 SW14      30.17S

$$
NMZ028-029-538-242200-
SOUTHEAST PLAINS

CITY           SKY/WX    TMP DP  RH WIND       PRES   REMARKS
ROSWELL        SUNNY     83  46  27 SE10      30.13F
CARLSBAD       SUNNY     83  54  36 SE7       30.12F
HOBBS          SUNNY     82  48  30 SW9       30.16F


$$



USA.gov is the U.S. government's official web portal to all federal, state and local government web resources and services.